Time,TemperatureF,DewpointF,PressureIn,WindDirection,WindDirectionDegrees,WindSpeedMPH,WindSpeedGustMPH,Humidity,HourlyPrecipIn,Conditions,Clouds,dailyrainin,SoftwareType,DateUTC
2013-02-16 00:02:00,6.0,-99.9,-100.00,North,0,0.0,-999.0,-999,-99.99,,,-99.99,,2013-02-16 06:02:00,
2013-02-16 00:11:00,7.0,-99.9,-100.00,North,0,0.0,-999.0,-999,-99.99,,,-99.99,,2013-02-16 06:11:00,
2013-02-16 00:22:00,7.0,-99.9,-100.00,North,0,0.0,-999.0,-999,-99.99,,,-99.99,,2013-02-16 06:22:00,
2013-02-16 00:32:00,8.0,-99.9,-100.00,North,0,0.0,-999.0,-999,-99.99,,,-99.99,,2013-02-16 06:32:00,
2013-02-16 00:42:00,8.0,-99.9,-100.00,North,0,0.0,-999.0,-999,-99.99,,,-99.99,,2013-02-16 06:42:00,
2013-02-16 00:52:00,7.0,-99.9,-100.00,North,0,0.0,-999.0,-999,-99.99,,,-99.99,,2013-02-16 06:52:00,
2013-02-16 01:02:00,6.0,-99.9,-100.00,North,0,0.0,-999.0,-999,-99.99,,,-99.99,,2013-02-16 07:02:00,
2013-02-16 01:11:00,5.0,-99.9,-100.00,North,0,0.0,-999.0,-999,-99.99,,,-99.99,,2013-02-16 07:11:00,
2013-02-16 01:22:00,5.0,-99.9,-100.00,North,0,0.0,-999.0,-999,-99.99,,,-99.99,,2013-02-16 07:22:00,
2013-02-16 01:32:00,5.0,-99.9,-100.00,North,0,0.0,-999.0,-999,-99.99,,,-99.99,,2013-02-16 07:32:00,
2013-02-16 01:42:00,5.0,-99.9,-100.00,North,0,0.0,-999.0,-999,-99.99,,,-99.99,,2013-02-16 07:42:00,
2013-02-16 01:53:00,5.0,-99.9,-100.00,North,0,0.0,-999.0,-999,-99.99,,,-99.99,,2013-02-16 07:53:00,
2013-02-16 02:02:00,6.0,-99.9,-100.00,North,0,0.0,-999.0,-999,-99.99,,,-99.99,,2013-02-16 08:02:00,
2013-02-16 02:11:00,6.0,-99.9,-100.00,North,0,0.0,-999.0,-999,-99.99,,,-99.99,,2013-02-16 08:11:00,
2013-02-16 02:22:00,6.0,-99.9,-100.00,North,0,0.0,-999.0,-999,-99.99,,,-99.99,,2013-02-16 08:22:00,
2013-02-16 02:32:00,6.0,-99.9,-100.00,North,0,0.0,-999.0,-999,-99.99,,,-99.99,,2013-02-16 08:32:00,
2013-02-16 02:42:00,5.0,-99.9,-100.00,North,0,0.0,-999.0,-999,-99.99,,,-99.99,,2013-02-16 08:42:00,
2013-02-16 02:52:00,6.0,-99.9,-100.00,North,0,0.0,-999.0,-999,-99.99,,,-99.99,,2013-02-16 08:52:00,
2013-02-16 03:02:00,6.0,-99.9,-100.00,North,0,0.0,-999.0,-999,-99.99,,,-99.99,,2013-02-16 09:02:00,
2013-02-16 03:11:00,6.0,-99.9,-100.00,North,0,0.0,-999.0,-999,-99.99,,,-99.99,,2013-02-16 09:11:00,
2013-02-16 03:22:00,6.0,-99.9,-100.00,North,0,0.0,-999.0,-999,-99.99,,,-99.99,,2013-02-16 09:22:00,
2013-02-16 03:32:00,6.0,-99.9,-100.00,North,0,0.0,-999.0,-999,-99.99,,,-99.99,,2013-02-16 09:32:00,
2013-02-16 03:43:00,6.0,-99.9,-100.00,North,0,0.0,-999.0,-999,-99.99,,,-99.99,,2013-02-16 09:43:00,
2013-02-16 03:52:00,6.0,-99.9,-100.00,North,0,0.0,-999.0,-999,-99.99,,,-99.99,,2013-02-16 09:52:00,
2013-02-16 04:01:00,6.0,-99.9,-100.00,North,0,0.0,-999.0,-999,-99.99,,,-99.99,,2013-02-16 10:01:00,
2013-02-16 04:11:00,7.0,-99.9,-100.00,North,0,0.0,-999.0,-999,-99.99,,,-99.99,,2013-02-16 10:11:00,
2013-02-16 04:22:00,8.0,-99.9,-100.00,North,0,0.0,-999.0,-999,-99.99,,,-99.99,,2013-02-16 10:22:00,
2013-02-16 04:32:00,8.0,-99.9,-100.00,North,0,0.0,-999.0,-999,-99.99,,,-99.99,,2013-02-16 10:32:00,
2013-02-16 04:42:00,8.0,-99.9,-100.00,North,0,0.0,-999.0,-999,-99.99,,,-99.99,,2013-02-16 10:42:00,
2013-02-16 04:52:00,8.0,-99.9,-100.00,North,0,0.0,-999.0,-999,-99.99,,,-99.99,,2013-02-16 10:52:00,
2013-02-16 05:02:00,8.0,-99.9,-100.00,North,0,0.0,-999.0,-999,-99.99,,,-99.99,,2013-02-16 11:02:00,
2013-02-16 05:11:00,9.0,-99.9,-100.00,North,0,0.0,-999.0,-999,-99.99,,,-99.99,,2013-02-16 11:11:00,
2013-02-16 05:22:00,10.0,-99.9,-100.00,North,0,0.0,-999.0,-999,-99.99,,,-99.99,,2013-02-16 11:22:00,
2013-02-16 05:32:00,10.0,-99.9,-100.00,North,0,0.0,-999.0,-999,-99.99,,,-99.99,,2013-02-16 11:32:00,
2013-02-16 05:42:00,10.0,-99.9,-100.00,North,0,0.0,-999.0,-999,-99.99,,,-99.99,,2013-02-16 11:42:00,
2013-02-16 05:52:00,10.0,-99.9,-100.00,North,0,0.0,-999.0,-999,-99.99,,,-99.99,,2013-02-16 11:52:00,
2013-02-16 06:02:00,10.0,-99.9,-100.00,North,0,0.0,-999.0,-999,-99.99,,,-99.99,,2013-02-16 12:02:00,
2013-02-16 06:12:00,11.0,-99.9,-100.00,North,0,0.0,-999.0,-999,-99.99,,,-99.99,,2013-02-16 12:12:00,
2013-02-16 06:22:00,11.0,-99.9,-100.00,North,0,0.0,-999.0,-999,-99.99,,,-99.99,,2013-02-16 12:22:00,
2013-02-16 06:32:00,11.0,-99.9,-100.00,North,0,0.0,-999.0,-999,-99.99,,,-99.99,,2013-02-16 12:32:00,
2013-02-16 06:42:00,11.0,-99.9,-100.00,North,0,0.0,-999.0,-999,-99.99,,,-99.99,,2013-02-16 12:42:00,
2013-02-16 06:52:00,11.0,-99.9,-100.00,North,0,0.0,-999.0,-999,-99.99,,,-99.99,,2013-02-16 12:52:00,
2013-02-16 07:02:00,11.0,-99.9,-100.00,North,0,0.0,-999.0,-999,-99.99,,,-99.99,,2013-02-16 13:02:00,
2013-02-16 07:12:00,12.0,-99.9,-100.00,North,0,0.0,-999.0,-999,-99.99,,,-99.99,,2013-02-16 13:12:00,
2013-02-16 07:22:00,12.0,-99.9,-100.00,SE,134,0.0,-999.0,-999,-99.99,,,-99.99,,2013-02-16 13:22:00,
2013-02-16 07:32:00,12.0,-99.9,-100.00,SE,134,0.0,-999.0,-999,-99.99,,,-99.99,,2013-02-16 13:32:00,
2013-02-16 07:42:00,12.0,-99.9,-100.00,SE,134,0.0,-999.0,-999,-99.99,,,-99.99,,2013-02-16 13:42:00,
2013-02-16 08:01:00,12.0,-99.9,-100.00,North,0,0.0,-999.0,-999,-99.99,,,-99.99,,2013-02-16 14:01:00,
2013-02-16 08:22:00,12.0,-99.9,-100.00,North,0,0.0,-999.0,-999,-99.99,,,-99.99,,2013-02-16 14:22:00,
2013-02-16 08:33:00,13.0,-99.9,-100.00,North,0,0.0,-999.0,-999,-99.99,,,-99.99,,2013-02-16 14:33:00,
2013-02-16 08:42:00,13.0,-99.9,-100.00,SE,134,0.0,-999.0,-999,-99.99,,,-99.99,,2013-02-16 14:42:00,
2013-02-16 08:52:00,14.0,-99.9,-100.00,SE,135,1.0,-999.0,-999,-99.99,,,-99.99,,2013-02-16 14:52:00,
2013-02-16 09:02:00,15.0,-99.9,-100.00,SSE,157,0.0,-999.0,-999,-99.99,,,-99.99,,2013-02-16 15:02:00,
2013-02-16 09:11:00,15.0,-99.9,-100.00,SE,144,1.0,-999.0,-999,-99.99,,,-99.99,,2013-02-16 15:11:00,
2013-02-16 09:22:00,16.0,-99.9,-100.00,SSE,148,1.0,-999.0,-999,-99.99,,,-99.99,,2013-02-16 15:22:00,
2013-02-16 09:32:00,17.0,-99.9,-100.00,South,178,1.0,-999.0,-999,-99.99,,,-99.99,,2013-02-16 15:32:00,
2013-02-16 09:42:00,18.0,-99.9,-100.00,South,173,1.0,-999.0,-999,-99.99,,,-99.99,,2013-02-16 15:42:00,
2013-02-16 09:52:00,18.0,-99.9,-100.00,SE,145,5.0,-999.0,-999,-99.99,,,-99.99,,2013-02-16 15:52:00,
2013-02-16 10:02:00,18.0,-99.9,-100.00,South,172,1.0,-999.0,-999,-99.99,,,-99.99,,2013-02-16 16:02:00,
2013-02-16 10:11:00,18.0,-99.9,-100.00,South,169,2.0,-999.0,-999,-99.99,,,-99.99,,2013-02-16 16:11:00,
2013-02-16 10:22:00,18.0,-99.9,-100.00,North,0,0.0,-999.0,-999,-99.99,,,-99.99,,2013-02-16 16:22:00,
2013-02-16 10:32:00,20.0,-99.9,-100.00,South,173,1.0,-999.0,-999,-99.99,,,-99.99,,2013-02-16 16:32:00,
2013-02-16 10:42:00,20.0,-99.9,-100.00,SSE,168,2.0,-999.0,-999,-99.99,,,-99.99,,2013-02-16 16:42:00,
2013-02-16 10:51:00,21.0,20.0,-100.00,North,0,0.0,-999.0,99,-99.99,,,-99.99,,2013-02-16 16:51:00,
2013-02-16 11:01:00,22.0,-99.9,-100.00,South,171,1.0,-999.0,-999,-99.99,,,-99.99,,2013-02-16 17:01:00,
2013-02-16 11:11:00,23.0,-99.9,-100.00,South,171,1.0,-999.0,-999,-99.99,,,-99.99,,2013-02-16 17:11:00,
2013-02-16 11:22:00,23.0,-99.9,-100.00,South,174,1.0,-999.0,-999,-99.99,,,-99.99,,2013-02-16 17:22:00,
2013-02-16 11:32:00,24.0,-99.9,-100.00,SSE,166,1.0,-999.0,-999,-99.99,,,-99.99,,2013-02-16 17:32:00,
2013-02-16 11:42:00,25.0,-99.9,-100.00,SSE,164,0.0,-999.0,-999,-99.99,,,-99.99,,2013-02-16 17:42:00,
2013-02-16 11:52:00,26.0,25.0,-100.00,SSE,167,2.0,-999.0,98,-99.99,,,-99.99,,2013-02-16 17:52:00,
2013-02-16 12:02:00,27.0,26.0,-100.00,South,175,1.0,-999.0,98,-99.99,,,-99.99,,2013-02-16 18:02:00,
2013-02-16 12:11:00,28.0,28.0,-100.00,North,0,0.0,-999.0,99,-99.99,,,-99.99,,2013-02-16 18:11:00,
2013-02-16 12:21:00,28.0,28.0,-100.00,North,0,0.0,-999.0,99,-99.99,,,-99.99,,2013-02-16 18:21:00,
2013-02-16 12:33:00,29.0,29.0,-100.00,North,0,0.0,-999.0,99,-99.99,,,-99.99,,2013-02-16 18:33:00,
2013-02-16 12:42:00,29.0,29.0,-100.00,SW,221,1.0,-999.0,99,-99.99,,,-99.99,,2013-02-16 18:42:00,
2013-02-16 12:51:00,30.0,30.0,-100.00,North,0,0.0,-999.0,98,-99.99,,,-99.99,,2013-02-16 18:51:00,
2013-02-16 13:02:00,31.0,31.0,-100.00,North,0,0.0,-999.0,98,-99.99,,,-99.99,,2013-02-16 19:02:00,
2013-02-16 13:11:00,31.0,31.0,-100.00,South,190,1.0,-999.0,98,-99.99,,,-99.99,,2013-02-16 19:11:00,
2013-02-16 13:21:00,32.0,31.0,-100.00,North,0,0.0,-999.0,98,-99.99,,,-99.99,,2013-02-16 19:21:00,
2013-02-16 13:31:00,31.0,30.0,-100.00,North,0,0.0,-999.0,98,-99.99,,,-99.99,,2013-02-16 19:31:00,
2013-02-16 13:42:00,31.0,31.0,-100.00,North,0,0.0,-999.0,98,-99.99,,,-99.99,,2013-02-16 19:42:00,
2013-02-16 13:52:00,31.0,31.0,-100.00,North,0,0.0,-999.0,98,-99.99,,,-99.99,,2013-02-16 19:52:00,
2013-02-16 14:01:00,31.0,31.0,-100.00,North,0,0.0,-999.0,98,-99.99,,,-99.99,,2013-02-16 20:01:00,
2013-02-16 14:11:00,33.0,32.0,-100.00,North,0,0.0,-999.0,98,-99.99,,,-99.99,,2013-02-16 20:11:00,
2013-02-16 14:21:00,32.0,31.0,-100.00,North,0,0.0,-999.0,98,-99.99,,,-99.99,,2013-02-16 20:21:00,
2013-02-16 14:32:00,32.0,31.0,-100.00,North,0,0.0,-999.0,98,-99.99,,,-99.99,,2013-02-16 20:32:00,
2013-02-16 14:42:00,32.0,31.0,-100.00,North,0,0.0,-999.0,98,-99.99,,,-99.99,,2013-02-16 20:42:00,
2013-02-16 14:52:00,31.0,31.0,-100.00,North,0,0.0,-999.0,98,-99.99,,,-99.99,,2013-02-16 20:52:00,
2013-02-16 15:02:00,32.0,31.0,-100.00,North,0,0.0,-999.0,98,-99.99,,,-99.99,,2013-02-16 21:02:00,
2013-02-16 15:11:00,32.0,31.0,-100.00,North,0,0.0,-999.0,98,-99.99,,,-99.99,,2013-02-16 21:11:00,
2013-02-16 15:21:00,32.0,32.0,-100.00,North,0,0.0,-999.0,98,-99.99,,,-99.99,,2013-02-16 21:21:00,
2013-02-16 15:32:00,32.0,32.0,-100.00,North,0,0.0,-999.0,98,-99.99,,,-99.99,,2013-02-16 21:32:00,
2013-02-16 15:42:00,32.0,31.0,-100.00,North,0,0.0,-999.0,98,-99.99,,,-99.99,,2013-02-16 21:42:00,
2013-02-16 15:52:00,31.0,31.0,-100.00,North,0,0.0,-999.0,98,-99.99,,,-99.99,,2013-02-16 21:52:00,
2013-02-16 16:01:00,31.0,31.0,-100.00,SSW,192,0.0,-999.0,98,-99.99,,,-99.99,,2013-02-16 22:01:00,
2013-02-16 16:11:00,31.0,31.0,-100.00,North,0,0.0,-999.0,98,-99.99,,,-99.99,,2013-02-16 22:11:00,
2013-02-16 16:21:00,31.0,31.0,-100.00,North,0,0.0,-999.0,98,-99.99,,,-99.99,,2013-02-16 22:21:00,
2013-02-16 16:32:00,31.0,31.0,-100.00,North,0,0.0,-999.0,98,-99.99,,,-99.99,,2013-02-16 22:32:00,
2013-02-16 16:42:00,31.0,31.0,-100.00,North,0,0.0,-999.0,98,-99.99,,,-99.99,,2013-02-16 22:42:00,
2013-02-16 16:51:00,31.0,31.0,-100.00,North,0,0.0,-999.0,98,-99.99,,,-99.99,,2013-02-16 22:51:00,
2013-02-16 17:02:00,31.0,31.0,-100.00,North,0,0.0,-999.0,98,-99.99,,,-99.99,,2013-02-16 23:02:00,
2013-02-16 17:11:00,31.0,30.0,-100.00,North,0,0.0,-999.0,98,-99.99,,,-99.99,,2013-02-16 23:11:00,
2013-02-16 17:21:00,31.0,30.0,-100.00,North,0,0.0,-999.0,98,-99.99,,,-99.99,,2013-02-16 23:21:00,
2013-02-16 17:31:00,31.0,30.0,-100.00,North,0,0.0,-999.0,97,-99.99,,,-99.99,,2013-02-16 23:31:00,
2013-02-16 17:42:00,31.0,30.0,-100.00,North,0,0.0,-999.0,97,-99.99,,,-99.99,,2013-02-16 23:42:00,
2013-02-16 17:52:00,30.0,30.0,-100.00,North,0,0.0,-999.0,97,-99.99,,,-99.99,,2013-02-16 23:52:00,
2013-02-16 18:02:00,30.0,29.0,-100.00,North,0,0.0,-999.0,97,-99.99,,,-99.99,,2013-02-17 00:02:00,
2013-02-16 18:12:00,30.0,29.0,-100.00,North,0,0.0,-999.0,97,-99.99,,,-99.99,,2013-02-17 00:12:00,
2013-02-16 18:22:00,30.0,29.0,-100.00,North,0,0.0,-999.0,97,-99.99,,,-99.99,,2013-02-17 00:22:00,
2013-02-16 18:32:00,30.0,29.0,-100.00,North,0,0.0,-999.0,97,-99.99,,,-99.99,,2013-02-17 00:32:00,
2013-02-16 18:42:00,30.0,29.0,-100.00,North,0,0.0,-999.0,97,-99.99,,,-99.99,,2013-02-17 00:42:00,
2013-02-16 18:52:00,30.0,29.0,-100.00,North,0,0.0,-999.0,97,-99.99,,,-99.99,,2013-02-17 00:52:00,
2013-02-16 19:01:00,30.0,29.0,-100.00,North,0,0.0,-999.0,97,-99.99,,,-99.99,,2013-02-17 01:01:00,
2013-02-16 19:11:00,29.0,29.0,-100.00,North,0,0.0,-999.0,97,-99.99,,,-99.99,,2013-02-17 01:11:00,
2013-02-16 19:21:00,29.0,29.0,-100.00,North,0,0.0,-999.0,97,-99.99,,,-99.99,,2013-02-17 01:21:00,
2013-02-16 19:31:00,29.0,29.0,-100.00,North,0,0.0,-999.0,97,-99.99,,,-99.99,,2013-02-17 01:31:00,
2013-02-16 19:41:00,29.0,29.0,-100.00,North,0,0.0,-999.0,97,-99.99,,,-99.99,,2013-02-17 01:41:00,
2013-02-16 19:52:00,29.0,29.0,-100.00,North,0,0.0,-999.0,97,-99.99,,,-99.99,,2013-02-17 01:52:00,
2013-02-16 20:01:00,29.0,29.0,-100.00,North,0,0.0,-999.0,98,-99.99,,,-99.99,,2013-02-17 02:01:00,
2013-02-16 20:11:00,29.0,29.0,-100.00,North,0,0.0,-999.0,98,-99.99,,,-99.99,,2013-02-17 02:11:00,
2013-02-16 20:21:00,29.0,29.0,-100.00,SSE,147,1.0,-999.0,98,-99.99,,,-99.99,,2013-02-17 02:21:00,
2013-02-16 20:31:00,29.0,28.0,-100.00,SE,137,1.0,-999.0,98,-99.99,,,-99.99,,2013-02-17 02:31:00,
2013-02-16 20:41:00,28.0,28.0,-100.00,SE,130,1.0,-999.0,98,-99.99,,,-99.99,,2013-02-17 02:41:00,
2013-02-16 20:52:00,28.0,27.0,-100.00,North,0,0.0,-999.0,98,-99.99,,,-99.99,,2013-02-17 02:52:00,
2013-02-16 21:02:00,28.0,27.0,-100.00,SSE,165,1.0,-999.0,98,-99.99,,,-99.99,,2013-02-17 03:02:00,
2013-02-16 21:11:00,28.0,27.0,-100.00,South,169,2.0,-999.0,98,-99.99,,,-99.99,,2013-02-17 03:11:00,
2013-02-16 21:21:00,28.0,28.0,-100.00,North,0,0.0,-999.0,99,-99.99,,,-99.99,,2013-02-17 03:21:00,
2013-02-16 21:31:00,28.0,28.0,-100.00,SE,140,0.0,-999.0,99,-99.99,,,-99.99,,2013-02-17 03:31:00,
2013-02-16 21:42:00,28.0,28.0,-100.00,SE,133,1.0,-999.0,99,-99.99,,,-99.99,,2013-02-17 03:42:00,
2013-02-16 21:52:00,28.0,28.0,-100.00,SE,133,0.0,-999.0,99,-99.99,,,-99.99,,2013-02-17 03:52:00,
2013-02-16 22:01:00,28.0,28.0,-100.00,SE,131,1.0,-999.0,99,-99.99,,,-99.99,,2013-02-17 04:01:00,
2013-02-16 22:11:00,28.0,27.0,-100.00,SE,135,7.0,-999.0,99,-99.99,,,-99.99,,2013-02-17 04:11:00,
2013-02-16 22:21:00,27.0,27.0,-100.00,SSE,147,0.0,-999.0,99,-99.99,,,-99.99,,2013-02-17 04:21:00,
2013-02-16 22:32:00,27.0,-99.9,-100.00,SE,142,4.0,-999.0,-999,-99.99,,,-99.99,,2013-02-17 04:32:00,
2013-02-16 22:42:00,27.0,-99.9,-100.00,SSE,166,2.0,-999.0,-999,-99.99,,,-99.99,,2013-02-17 04:42:00,
2013-02-16 22:52:00,27.0,-99.9,-100.00,North,0,0.0,-999.0,-999,-99.99,,,-99.99,,2013-02-17 04:52:00,
2013-02-16 23:02:00,27.0,-99.9,-100.00,SSE,153,1.0,-999.0,-999,-99.99,,,-99.99,,2013-02-17 05:02:00,
2013-02-16 23:12:00,26.0,26.0,-100.00,SE,139,4.0,-999.0,99,-99.99,,,-99.99,,2013-02-17 05:12:00,
2013-02-16 23:22:00,26.0,-99.9,-100.00,North,0,0.0,-999.0,-999,-99.99,,,-99.99,,2013-02-17 05:22:00,
2013-02-16 23:33:00,26.0,-99.9,-100.00,SE,139,2.0,-999.0,-999,-99.99,,,-99.99,,2013-02-17 05:33:00,
2013-02-16 23:42:00,25.0,-99.9,-100.00,SE,143,1.0,-999.0,-999,-99.99,,,-99.99,,2013-02-17 05:42:00,
2013-02-16 23:52:00,24.0,-99.9,-100.00,SSE,148,1.0,-999.0,-999,-99.99,,,-99.99,,2013-02-17 05:52:00,